Tracking 19709 objects as of 19-Jun-2019
HD Live streaming from Space Station
objects crossing your sky now

COSMOS 1862

Track COSMOS 1862 now!
10-day predictions
COSMOS 1862 is classified as:


NORAD ID: 18152
Int'l Code: 1987-055A
Perigee: 547.1 km
Apogee: 563.2 km
Inclination: 82.5 °
Period: 95.6 minutes
Semi major axis: 6926 km
RCS: 8.6433 m2 (large)
Launch date: July 1, 1987
Source: Commonwealth of Independent States (former USSR) (CIS)
Launch site: PLESETSK MISSILE AND SPACE COMPLEX (PKMTR)
aabbcc
Your satellite tracking list
Your tracking list is empty




NASA's NSSDC Master Catalog

Two Line Element Set (TLE):
1 18152U 87055A   19169.83576514 +.00000402 +00000-0 +25477-4 0  9992
2 18152 082.4949 302.7368 0011625 232.7173 127.2995 15.06141813718634
Source of the keplerian elements: AFSPC